Weather History for Hearne, TX

Change the Weather History Date:

Wednesday, June 26, 2013

  Actual Average (KCLL) Record (KCLL)
Temperature  
Mean Temperature 88 °F 84 °F  
Max Temperature 99 °F 93 °F 106 °F (2012)
Min Temperature 76 °F 74 °F 60 °F (1940)
Degree Days  
Heating Degree Days 0 0  
Month to date heating degree days 0  
Since 1 June heating degree days 0  
Since 1 July heating degree days 1608  
Cooling Degree Days 22 19  
Month to date cooling degree days 441  
Year to date cooling degree days 1029  
Since 1 June cooling degree days 441  
Growing Degree Days 38 (Base 50)    
Moisture  
Dew Point 68 °F    
Average Humidity 59    
Maximum Humidity 88    
Minimum Humidity 29    
Precipitation  
Precipitation 0.00 in 0.12 in 2.96 in (1960)
Month to date precipitation 3.99  
Year to date precipitation 20.24  
Sea Level Pressure  
Sea Level Pressure 29.94 in    
Wind  
Wind Speed 9 mph (SSE)    
Max Wind Speed 16 mph    
Max Gust Speed 26 mph    
Visibility 9 miles    
Events      
T = Trace of Precipitation, MM = Missing Value Source: NWS Daily Summary

Daily Weather History Graph

Daily Weather History Graph

Search for Another Location

Airport:

Trip Planner

Search our weather history database for the weather conditions in past years. The results will help you decide how hot, cold, wet, or windy it might be!

Date:

Astronomy

Jun. 26, 2013 Rise Set
Actual Time 6:25 AM CDT 8:33 PM CDT
Civil Twilight 5:57 AM CDT 9:01 PM CDT
Nautical Twilight 5:23 AM CDT 9:35 PM CDT
Astronomical Twilight 4:47 AM CDT 10:11 PM CDT
Moon 11:15 PM CDT (6/26) 10:02 AM CDT (6/26)
Length of Visible Light 15h 03m
Length of Day
14h 08m
Waning Gibbous, 85% of the Moon is Illuminated
Jun 26
Waning Gibbous
Jun 29
Last Quarter
Jul 8
New
Jul 15
First Quarter
Jul 22
Full

Hourly Weather History & Observations

Time (CDT) Temp. Heat Index Dew Point Humidity Pressure Visibility Wind Dir Wind Speed Gust Speed Precip Events Conditions
12:15 AM 78.1 °F - 68.9 °F 73% 29.95 in 10.0 mi SSE 6.9 mph - N/A   Clear
12:35 AM 77.7 °F - 69.3 °F 75% 29.95 in 10.0 mi SSE 8.1 mph - N/A   Clear
12:55 AM 78.4 °F - 70.7 °F 77% 29.95 in 10.0 mi SE 10.4 mph - N/A   Clear
1:15 AM 77.9 °F - 70.9 °F 79% 29.95 in 10.0 mi SE 9.2 mph - N/A   Clear
1:35 AM 77.7 °F - 71.1 °F 80% 29.94 in 10.0 mi SE 8.1 mph - N/A   Scattered Clouds
1:55 AM 77.4 °F - 71.6 °F 82% 29.94 in 10.0 mi SE 9.2 mph - N/A   Scattered Clouds
2:15 AM 77.0 °F - 71.6 °F 83% 29.94 in 10.0 mi SSE 9.2 mph - N/A   Scattered Clouds
2:35 AM 77.0 °F - 71.6 °F 83% 29.94 in 10.0 mi SE 6.9 mph - N/A   Mostly Cloudy
2:55 AM 77.0 °F - 71.8 °F 84% 29.93 in 10.0 mi SE 5.8 mph - N/A   Overcast
3:15 AM 77.0 °F - 72.0 °F 84% 29.93 in 10.0 mi SE 5.8 mph - N/A   Overcast
3:35 AM 76.8 °F - 72.0 °F 85% 29.93 in 10.0 mi SE 6.9 mph - N/A   Overcast
3:55 AM 76.5 °F - 72.0 °F 86% 29.94 in 10.0 mi SE 4.6 mph - N/A   Overcast
4:15 AM 76.1 °F - 72.0 °F 87% 29.94 in 10.0 mi SE 4.6 mph - N/A   Overcast
4:35 AM 76.3 °F - 72.5 °F 88% 29.95 in 10.0 mi SSE 5.8 mph - N/A   Overcast
4:55 AM 76.6 °F - 72.5 °F 87% 29.95 in 10.0 mi SSE 10.4 mph - N/A   Overcast
5:15 AM 77.4 °F - 72.5 °F 85% 29.95 in 10.0 mi SSE 10.4 mph 16.1 mph N/A   Overcast
5:35 AM 77.0 °F - 72.1 °F 85% 29.95 in 10.0 mi South 10.4 mph 18.4 mph N/A   Mostly Cloudy
5:55 AM 76.6 °F - 72.1 °F 86% 29.96 in 7.0 mi SSE 9.2 mph - N/A   Mostly Cloudy
6:15 AM 76.3 °F - 72.0 °F 86% 29.96 in 7.0 mi SSE 8.1 mph - N/A   Mostly Cloudy
6:35 AM 76.1 °F - 72.0 °F 87% 29.98 in 7.0 mi SSE 8.1 mph - N/A   Overcast
6:55 AM 76.6 °F - 72.1 °F 86% 29.98 in 7.0 mi SSE 5.8 mph - N/A   Overcast
7:15 AM 77.0 °F - 72.0 °F 84% 29.99 in 7.0 mi South 9.2 mph - N/A   Mostly Cloudy
7:35 AM 77.9 °F - 72.3 °F 83% 30.00 in 7.0 mi South 8.1 mph - N/A   Mostly Cloudy
7:55 AM 78.1 °F - 72.1 °F 82% 30.00 in 7.0 mi SSE 8.1 mph - N/A   Mostly Cloudy
8:15 AM 79.2 °F - 72.1 °F 79% 30.00 in 7.0 mi South 10.4 mph - N/A   Mostly Cloudy
8:35 AM 79.5 °F - 71.8 °F 77% 30.00 in 7.0 mi South 8.1 mph - N/A   Overcast
8:55 AM 80.2 °F 84.2 °F 72.0 °F 76% 30.00 in 7.0 mi South 8.1 mph - N/A   Mostly Cloudy
9:15 AM 81.5 °F 85.5 °F 71.1 °F 70% 30.01 in 7.0 mi South 12.7 mph 18.4 mph N/A   Mostly Cloudy
9:55 AM 84.7 °F 89.7 °F 71.1 °F 63% 30.00 in 10.0 mi SSE 10.4 mph 16.1 mph N/A   Scattered Clouds
10:15 AM 86.0 °F 91.1 °F 70.5 °F 60% 30.00 in 7.0 mi South 15.0 mph 20.7 mph N/A   Mostly Cloudy
10:35 AM 86.2 °F 90.4 °F 69.3 °F 57% 30.00 in 7.0 mi South 16.1 mph 24.2 mph N/A   Scattered Clouds
10:55 AM 87.8 °F 92.6 °F 69.8 °F 55% 30.00 in 7.0 mi South 13.8 mph 18.4 mph N/A   Scattered Clouds
11:15 AM 88.2 °F 92.9 °F 69.4 °F 54% 30.00 in 10.0 mi South 10.4 mph - N/A   Scattered Clouds
11:35 AM 89.6 °F 94.3 °F 69.4 °F 51% 30.00 in 10.0 mi SE 11.5 mph 19.6 mph N/A   Scattered Clouds
11:55 AM 90.7 °F 95.0 °F 68.7 °F 48% 29.99 in 10.0 mi South 9.2 mph 18.4 mph N/A   Scattered Clouds
12:15 PM 91.4 °F 95.8 °F 68.7 °F 47% 29.99 in 10.0 mi SSE 12.7 mph 19.6 mph N/A   Clear
12:35 PM 92.1 °F 96.2 °F 67.8 °F 45% 29.99 in 10.0 mi SE 11.5 mph 18.4 mph N/A   Clear
12:55 PM 93.2 °F 97.2 °F 67.6 °F 43% 29.98 in 10.0 mi South 10.4 mph 18.4 mph N/A   Clear
1:15 PM 93.0 °F 96.4 °F 67.1 °F 42% 29.98 in 10.0 mi SSE 6.9 mph - N/A   Scattered Clouds
1:35 PM 94.1 °F 96.9 °F 65.5 °F 39% 29.97 in 10.0 mi SSE 13.8 mph 18.4 mph N/A   Clear
1:55 PM 94.8 °F 98.1 °F 66.0 °F 39% 29.96 in 10.0 mi SSE 6.9 mph 13.8 mph N/A   Clear
2:15 PM 96.1 °F 98.8 °F 65.3 °F 36% 29.96 in 10.0 mi South 11.5 mph 17.3 mph N/A   Clear
2:35 PM 96.4 °F 98.9 °F 64.6 °F 35% 29.95 in 10.0 mi SE 9.2 mph 20.7 mph N/A   Clear
2:55 PM 97.2 °F 100.2 °F 65.1 °F 35% 29.94 in 10.0 mi SE 10.4 mph 26.5 mph N/A   Clear
3:15 PM 98.1 °F 100.7 °F 64.0 °F 33% 29.93 in 10.0 mi SE 12.7 mph 17.3 mph N/A   Clear
3:35 PM 97.9 °F 99.8 °F 63.5 °F 32% 29.92 in 10.0 mi SE 11.5 mph 17.3 mph N/A   Clear
3:55 PM 98.1 °F 99.6 °F 62.8 °F 31% 29.92 in 10.0 mi SE 8.1 mph - N/A   Clear
4:15 PM 98.8 °F 100.3 °F 62.6 °F 30% 29.91 in 10.0 mi SSE 8.1 mph - N/A   Clear
4:35 PM 98.8 °F 100.3 °F 62.6 °F 30% 29.90 in 10.0 mi SE 13.8 mph 18.4 mph N/A   Clear
4:55 PM 99.0 °F 100.5 °F 62.4 °F 30% 29.90 in 10.0 mi SE 12.7 mph 16.1 mph N/A   Clear
5:15 PM 98.6 °F 100.0 °F 62.1 °F 30% 29.89 in 10.0 mi SSE 12.7 mph 18.4 mph N/A   Clear
5:35 PM 98.6 °F 99.4 °F 61.7 °F 29% 29.89 in 10.0 mi SSE 10.4 mph 17.3 mph N/A   Clear
5:55 PM 98.2 °F 101.0 °F 64.4 °F 33% 29.88 in 10.0 mi SE 11.5 mph - N/A   Clear
6:15 PM 97.7 °F 100.6 °F 64.6 °F 34% 29.88 in 10.0 mi SE 8.1 mph - N/A   Clear
6:35 PM 97.2 °F 99.6 °F 64.4 °F 34% 29.88 in 10.0 mi SE 11.5 mph - N/A   Clear
6:55 PM 96.4 °F 98.9 °F 64.4 °F 35% 29.88 in 10.0 mi SE 5.8 mph - N/A   Clear
7:15 PM 95.5 °F 97.9 °F 64.8 °F 36% 29.88 in 10.0 mi SE 9.2 mph - N/A   Clear
7:35 PM 94.3 °F 96.7 °F 65.1 °F 38% 29.88 in 10.0 mi SE 10.4 mph - N/A   Clear
7:55 PM 93.0 °F 95.5 °F 65.7 °F 40% 29.88 in 10.0 mi SE 6.9 mph - N/A   Clear
8:15 PM 91.8 °F 94.6 °F 66.0 °F 43% 29.89 in 10.0 mi SE 8.1 mph - N/A   Clear
8:35 PM 90.7 °F 93.2 °F 66.0 °F 44% 29.89 in 10.0 mi SE 8.1 mph - N/A   Clear
8:55 PM 89.1 °F 91.7 °F 66.2 °F 47% 29.90 in 10.0 mi SE 8.1 mph - N/A   Clear
9:15 PM 88.3 °F 90.9 °F 66.2 °F 48% 29.90 in 10.0 mi SE 8.1 mph - N/A   Clear
9:35 PM 87.3 °F 89.8 °F 66.4 °F 50% 29.90 in 10.0 mi SE 8.1 mph - N/A   Clear
9:55 PM 86.5 °F 89.0 °F 66.2 °F 51% 29.91 in 10.0 mi SE 8.1 mph - N/A   Clear
10:15 PM 86.2 °F 88.4 °F 65.8 °F 51% 29.92 in 10.0 mi SE 8.1 mph - N/A   Clear
10:35 PM 85.6 °F 87.9 °F 66.2 °F 52% 29.93 in 10.0 mi SE 6.9 mph - N/A   Clear
10:55 PM 84.6 °F 87.1 °F 66.7 °F 55% 29.93 in 10.0 mi SSE 8.1 mph - N/A   Clear
11:15 PM 84.4 °F 87.1 °F 67.3 °F 56% 29.94 in 10.0 mi SSE 8.1 mph - N/A   Clear
11:35 PM 84.2 °F 87.1 °F 67.3 °F 57% 29.95 in 10.0 mi SSE 9.2 mph - N/A   Clear
11:55 PM 83.3 °F 85.9 °F 67.3 °F 58% 29.95 in 10.0 mi SSE 9.2 mph - N/A   Clear